Regional Weather Roundup
Issued by NWS State College, PA

Home | Current Version | Previous Version | Graphics & Text | Print | Product List | Glossary On
Versions: 1 2 3 4 5 6 7 8 9 10 11 12 13 14 15 16 17 18 19 20 21 22 23 24 25 26 27 28 29 30 31 32 33 34 35 36 37 38 39 40 41 42 43 44 45 46 47 48 49 50
000
ASUS41 KCTP 192103
RWRCTP

REGIONAL WEATHER ROUNDUP
NATIONAL WEATHER SERVICE STATE COLLEGE PA
400 PM EST FRI DEC 19 2014

Note: "fair" indicates few or no clouds below 12,000 feet with no
significant weather and/or obstructions to visibility.

* = STATION THAT DOES NOT REPORT PRECIPITATION /E.G. RAIN...SNOW...ETC/
    THUNDER OR FOG.

PAZ002>004-007>009-013>016-020>023-029>032-192200-
WESTERN PENNSYLVANIA

CITY           SKY/WX    TMP DP  RH WIND       PRES   REMARKS
ERIE           CLOUDY    30  20  66 NW5       30.23R
MEADVILLE      CLEAR     27  18  69 NW7       30.18R
FRANKLIN*      MOCLDY    28  19  69 CALM      30.18S
NEW CASTLE       N/A     30  23  75 CALM      30.22S
BEAVER COUNTY  CLOUDY    30  23  74 NW6       30.20S
BUTLER*        CLOUDY    30  21  69 CALM      30.21R
PITTSBURGH INT CLOUDY    31  23  72 W8        30.21R
PITTSBURGH     CLOUDY    30  20  66 W8        30.20R
INDIANA*       CLOUDY    30  23  74 W9        30.20S
LATROBE        CLOUDY    32  23  69 NW12      30.21S
WASHINGTON CO* NOT AVBL
$$

PAZ004>006-010>012-017>019-024>028-033>037-041-042-045-046-049>053-192200-
CENTRAL PENNSYLVANIA

CITY           SKY/WX    TMP DP  RH WIND       PRES   REMARKS
BRADFORD       CLOUDY    23  19  85 W10       30.10R WCI  12
DUBOIS         MOCLDY    27  19  72 W10       30.13R
CLEARFIELD     MOCLDY    30  19  63 NW13      30.14R
JOHNSTOWN      CLOUDY    25  19  78 W10       30.11R WCI  15
ALTOONA        CLOUDY    30  21  69 NW14      30.14R
STATE COLLEGE  MOCLDY    32  19  59 NW16      30.13R
WILLIAMSPORT   CLOUDY    35  20  54 NW9G18    30.14R
SELINSGROVE    CLOUDY    37  21  52 N6        30.14R
FT INDIANTOWN  CLEAR     37  20  51 W10G17    30.12R
CAPITAL CITY   PTCLDY    39  21  48 NW8       30.14R
HARRISBURG     PTCLDY    37  20  50 NW13      30.13R
YORK           PTCLDY    38  22  52 NW6       30.13R
$$

PAZ038>040-043-044-047-048-054-055-060>062-067>071-192200-
EASTERN PENNSYLVANIA

CITY           SKY/WX    TMP DP  RH WIND       PRES   REMARKS
SCRANTON       CLOUDY    30  18  60 NW13G21   30.10S
MOUNT POCONO   CLOUDY    25  18  74 NW13G22   30.01R WCI  14
ALLENTOWN      CLEAR     35  21  56 N12       30.09S
QUAKERTOWN*    CLEAR     36  23  60 N7        30.08R
READING        CLEAR     38  20  48 N14       30.10R
LANCASTER      CLEAR     38  21  50 NW13      30.11R
COATESVILLE    FAIR      37  25  60 NW14      30.09R
POTTSTOWN      CLEAR     38  21  50 NW8       30.10R
BLUE BELL      CLEAR     41  23  48 W3        30.07R
DOYLESTOWN     CLEAR     36  22  56 N10       30.07R
WILLOW GROVE   NOT AVBL
NORTH PHILA    CLEAR     41  20  43 N14       30.10R
PHILADELPHIA   PTCLDY    41  21  44 NW16G23   30.10R
$$



USA.gov is the U.S. government's official web portal to all federal, state and local government web resources and services.